TimeEDT,TemperatureF,Dew PointF,Humidity,Sea Level PressureIn,VisibilityMPH,Wind Direction,Wind SpeedMPH,Gust SpeedMPH,PrecipitationIn,Events,Conditions,WindDirDegrees,DateUTC
12:53 AM,39.0,34.0,82,29.98,10.0,Calm,Calm,-,N/A,,Clear,0,2012-10-16 04:53:00
1:53 AM,37.0,34.0,89,29.98,10.0,South,3.5,-,N/A,,Clear,180,2012-10-16 05:53:00
2:53 AM,35.1,30.9,85,29.99,10.0,Calm,Calm,-,N/A,,Clear,0,2012-10-16 06:53:00
3:53 AM,34.0,32.0,92,29.98,10.0,Calm,Calm,-,N/A,,Clear,0,2012-10-16 07:53:00
4:53 AM,36.0,33.1,89,29.99,10.0,Calm,Calm,-,N/A,,Clear,0,2012-10-16 08:53:00
5:53 AM,32.0,30.0,92,29.98,10.0,Calm,Calm,-,N/A,,Clear,0,2012-10-16 09:53:00
6:53 AM,33.1,32.0,96,29.97,9.0,Calm,Calm,-,N/A,,Clear,0,2012-10-16 10:53:00
7:53 AM,33.8,32.0,93,29.95,6.0,SSE,5.8,-,N/A,,Scattered Clouds,160,2012-10-16 11:53:00
8:53 AM,36.0,33.1,89,29.99,8.0,Calm,Calm,-,N/A,,Mostly Cloudy,0,2012-10-16 12:53:00
9:53 AM,42.1,37.9,85,29.97,10.0,SSE,8.1,-,N/A,,Mostly Cloudy,150,2012-10-16 13:53:00
10:53 AM,46.9,39.0,74,29.95,10.0,SSE,11.5,-,N/A,,Mostly Cloudy,150,2012-10-16 14:53:00
11:53 AM,48.9,39.9,71,29.94,10.0,SSE,8.1,-,N/A,,Mostly Cloudy,160,2012-10-16 15:53:00
12:53 PM,55.0,41.0,59,29.90,10.0,South,10.4,-,N/A,,Mostly Cloudy,170,2012-10-16 16:53:00
1:53 PM,57.9,41.0,53,29.86,10.0,South,10.4,21.9,N/A,,Mostly Cloudy,180,2012-10-16 17:53:00
2:53 PM,60.1,41.0,49,29.82,10.0,South,10.4,-,N/A,,Mostly Cloudy,170,2012-10-16 18:53:00
3:53 PM,61.0,41.0,48,29.79,10.0,South,13.8,20.7,N/A,,Scattered Clouds,190,2012-10-16 19:53:00
4:53 PM,61.0,41.0,48,29.76,10.0,SSE,12.7,-,N/A,,Mostly Cloudy,160,2012-10-16 20:53:00
5:53 PM,60.1,41.0,49,29.73,10.0,SSE,13.8,-,N/A,,Mostly Cloudy,150,2012-10-16 21:53:00
6:53 PM,57.0,41.0,55,29.70,10.0,SSE,11.5,-,N/A,,Mostly Cloudy,150,2012-10-16 22:53:00
7:53 PM,57.0,41.0,55,29.69,10.0,ESE,12.7,-,N/A,,Mostly Cloudy,120,2012-10-16 23:53:00
8:53 PM,55.0,44.1,67,29.72,10.0,SE,6.9,-,0.00,Rain,Light Rain,130,2012-10-17 00:53:00
9:53 PM,54.0,44.1,69,29.70,10.0,SE,6.9,-,0.00,,Mostly Cloudy,140,2012-10-17 01:53:00
10:53 PM,55.9,43.0,62,29.68,10.0,SE,10.4,-,N/A,,Overcast,140,2012-10-17 02:53:00
11:53 PM,57.0,43.0,59,29.66,10.0,SSE,12.7,-,N/A,,Overcast,150,2012-10-17 03:53:00